CAPE
930 912 1022 814 876 822 613 591 417 388 711 566 163 7 16 14 0 0 0 0 0 0 0 0 0 0 0 0 0 0 0 0 0 0 0 0 0 0 0 0 0 0
819 1061 568 746 786 451 657 655 462 614 788 557 325 107 4 1 0 0 0 0 0 0 0 0 0 0 0 0 0 0 0 0 0 0 0 0 0 0 0 0 0 0
1157 896 537 674 616 458 630 600 625 828 530 524 321 59 2 0 0 0 0 0 0 0 0 0 0 0 0 0 0 0 0 0 0 0 0 0 0 0 0 0 0 0
1251 901 524 758 516 556 517 564 549 518 634 379 205 59 3 0 5 0 0 0 0 0 0 0 0 0 0 0 0 0 0 0 0 0 0 0 0 0 0 0 0 0
1126 941 589 564 507 500 347 380 291 384 439 398 270 39 5 1 0 0 0 0 0 0 0 0 0 0 0 0 0 0 0 0 0 0 0 0 0 0 0 0 0 0
1106 966 491 321 462 474 363 258 199 304 420 354 220 30 14 0 0 0 4 0 0 0 0 0 0 0 0 0 0 0 0 0 0 0 0 0 0 0 0 0 0 0
979 1122 754 409 459 454 387 259 289 99 281 298 28 129 16 5 0 0 0 2 0 0 0 4 0 0 5 1 0 1 0 0 0 0 0 0 0 0 0 0 0 0
1130 914 1100 405 387 458 429 667 628 449 472 60 30 137 14 4 0 10 3 1 0 0 2 0 0 0 0 4 0 0 0 0 0 0 0 0 0 0 0 0 0 0
1148 927 1205 540 420 347 603 277 473 590 370 299 134 165 59 23 6 53 15 1 4 2 0 0 0 13 100 37 6 0 0 0 15 0 5 0 0 0 0 0 0 0
983 1102 1159 884 220 290 603 118 179 193 435 465 327 15 3 108 110 1 8 15 15 3 5 3 6 136 176 66 3 0 53 23 62 62 0 6 0 0 1 0 26 0
1229 1308 1246 1085 533 295 621 272 254 161 252 526 837 399 44 143 76 0 10 0 102 2 2 31 53 44 79 176 279 283 146 258 180 55 147 55 187 272 82 96 2 49
1431 1474 1595 1446 1256 928 708 260 203 302 367 480 497 274 374 325 196 2 8 5 0 0 1 27 37 81 109 167 211 354 453 389 337 385 251 236 262 294 119 216 186 214
1445 1360 1136 900 808 675 306 429 237 187 354 190 330 251 331 323 201 110 116 64 0 5 28 11 65 125 216 362 442 421 505 491 495 666 603 524 483 331 291 375 262 273
813 780 979 838 928 761 455 250 320 686 220 112 134 410 337 159 186 149 303 85 87 105 56 114 197 220 77 155 444 453 590 637 669 811 761 707 636 493 514 412 285 322
880 751 905 874 806 710 525 390 369 571 536 980 597 770 1255 871 454 161 218 131 101 272 319 280 339 142 100 65 170 368 256 411 550 529 659 398 213 371 338 562 648 363
696 1096 1128 960 904 798 640 590 628 855 973 588 764 1054 1018 847 494 393 679 593 456 508 503 135 369 349 201 0 5 475 576 516 491 567 387 56 20 82 324 350 426 311
793 768 818 1062 1089 1065 1042 944 1025 1051 807 820 873 999 601 593 541 576 811 607 605 758 458 339 326 229 8 0 293 379 416 705 815 324 348 277 338 406 26 111 223 324
820 739 977 1030 1133 846 1034 1039 991 1049 943 866 1152 1003 859 799 612 599 621 656 741 810 660 544 416 230 0 0 335 410 411 461 454 427 343 337 236 421 299 170 86 156
604 614 654 786 839 775 1061 1195 1017 1043 954 982 1132 1020 894 716 740 641 514 708 928 961 732 543 516 404 345 0 312 397 437 489 421 372 452 254 184 130 184 286 407 337
486 559 630 748 788 817 887 879 739 692 1040 1048 913 743 723 767 672 600 589 696 1015 1086 1072 851 809 564 233 0 422 447 449 452 329 638 386 467 330 494 561 389 462 296
0 0 0 8 373 685 771 840 953 1152 820 911 816 767 691 667 683 756 760 736 892 897 905 1081 812 609 548 521 556 556 538 400 302 724 607 360 386 178 135 3 191 216
0 1 2 0 0 0 4 94 737 1107 1000 875 890 786 647 713 717 720 608 546 572 770 1005 834 727 763 706 581 495 460 433 325 270 589 588 479 306 284 6 4 41 138
0 0 0 0 0 4 0 2 12 162 533 751 778 726 555 546 593 607 549 490 566 782 869 792 763 687 625 576 494 442 426 298 344 522 608 487 298 126 55 4 0 0
0 0 0 0 0 0 10 66 56 25 76 203 354 472 548 527 546 568 550 547 611 732 696 782 771 723 695 598 434 336 345 342 402 708 775 542 102 25 0 0 0 0
0 0 0 0 0 3 16 16 56 61 48 54 134 159 207 348 311 366 394 437 526 590 609 634 782 711 498 165 0 212 375 439 523 715 428 14 7 0 0 0 0 0
0 0 0 0 0 0 0 0 0 1 23 107 167 57 38 63 123 85 234 275 300 432 693 665 847 702 347 0 189 418 508 519 340 356 91 50 27 0 0 0 0 0
Wind_Speed
23 19 18 17 15 16 17 18 19 18 16 14 12 nan nan nan nan nan nan nan nan nan nan nan nan nan nan nan nan nan nan nan nan nan nan nan nan nan nan nan nan nan
22 20 21 20 19 19 18 19 20 19 17 14 11 12 nan nan nan nan nan nan nan nan nan nan nan nan nan nan nan nan nan nan nan nan nan nan nan nan nan nan nan nan
21 21 21 21 22 22 23 22 23 21 18 14 13 nan nan nan nan nan nan nan nan nan nan nan nan nan nan nan nan nan nan nan nan nan nan nan nan nan nan nan nan nan
18 18 18 21 24 27 28 27 25 22 17 16 13 nan nan nan nan nan nan nan nan nan nan nan nan nan nan nan nan nan nan nan nan nan nan nan nan nan nan nan nan nan
16 19 21 25 28 30 29 27 23 18 16 15 14 nan nan nan nan nan nan nan nan nan nan nan nan nan nan nan nan nan nan nan nan nan nan nan nan nan nan nan nan nan
20 22 26 28 30 29 26 24 20 19 17 16 15 nan nan nan nan nan nan nan nan nan nan nan nan nan nan nan nan nan nan nan nan nan nan nan nan nan nan nan nan nan
25 27 29 29 27 24 22 21 21 nan 18 16 nan 14 nan nan nan nan nan nan nan nan nan nan nan nan nan nan nan nan nan nan nan nan nan nan nan nan nan nan nan nan
28 30 27 26 23 20 20 22 24 22 20 nan nan 16 nan nan nan nan nan nan nan nan nan nan nan nan nan nan nan nan nan nan nan nan nan nan nan nan nan nan nan nan
28 27 23 23 22 20 21 24 24 23 21 18 17 18 nan nan nan nan nan nan nan nan nan nan nan nan 17 nan nan nan nan nan nan nan nan nan nan nan nan nan nan nan
25 21 20 21 22 21 23 25 25 24 22 20 18 nan nan 17 19 nan nan nan nan nan nan nan nan 16 17 nan nan nan nan nan nan nan nan nan nan nan nan nan nan nan
18 19 19 19 24 24 26 27 26 24 23 21 20 21 nan 18 nan nan nan nan 18 nan nan nan nan nan nan 18 17 18 15 15 15 nan 16 nan 19 23 nan nan nan nan
16 18 20 21 24 27 28 28 26 25 24 20 20 20 19 19 22 nan nan nan nan nan nan nan nan nan 17 16 17 16 15 17 15 18 19 20 22 22 23 23 24 23
18 20 23 24 23 26 27 24 21 21 22 19 19 21 21 20 22 20 20 nan nan nan nan nan nan 23 21 20 19 18 16 19 19 22 23 23 25 25 24 25 25 25
23 21 24 24 23 25 22 22 15 14 20 20 22 22 22 22 21 19 20 nan nan 21 nan 25 28 29 nan 23 21 21 22 22 24 25 25 27 28 28 27 27 28 27
22 23 22 23 24 23 22 21 18 14 19 22 21 24 27 25 23 21 22 23 22 25 27 35 40 37 nan nan 22 23 23 22 25 27 27 28 29 30 29 27 31 33
24 21 21 21 20 22 23 22 20 20 21 20 22 25 26 27 26 26 28 27 28 30 36 37 36 34 29 nan nan 26 25 23 26 30 33 nan nan nan 26 30 32 30
23 20 20 20 20 23 23 23 23 25 24 23 24 25 26 27 28 28 30 32 34 35 37 35 33 31 nan nan 25 28 32 33 36 36 35 37 37 35 nan 33 36 33
25 25 25 24 24 25 25 26 27 28 29 28 29 29 30 30 30 32 34 35 37 38 38 36 34 32 nan nan 32 32 40 37 39 40 41 42 41 39 35 34 nan 35
29 29 30 28 30 29 28 29 30 31 33 32 33 33 34 33 33 35 36 37 39 39 40 38 38 37 37 nan 38 40 43 40 39 40 39 39 40 41 39 37 38 38
30 30 32 34 33 34 33 33 35 34 36 36 38 37 36 36 36 37 38 39 40 40 42 42 40 40 41 nan 44 47 46 43 37 36 37 37 39 40 40 42 43 41
nan nan nan nan 37 37 36 35 38 39 39 39 40 39 38 38 39 39 40 41 41 43 42 42 41 43 46 46 46 48 47 42 37 37 38 39 40 41 41 nan 43 42
nan nan nan nan nan nan nan nan 41 41 41 42 42 40 40 41 42 40 39 40 41 42 42 43 42 43 46 44 46 47 45 38 36 36 38 40 41 43 nan nan nan 40
nan nan nan nan nan nan nan nan nan 44 43 45 44 44 43 42 43 43 41 40 40 40 41 43 45 41 40 40 44 45 43 37 37 38 41 43 44 42 nan nan nan nan
nan nan nan nan nan nan nan nan nan nan nan 44 43 44 46 48 50 50 49 46 44 44 44 43 46 44 41 42 45 44 41 41 41 42 43 47 49 nan nan nan nan nan
nan nan nan nan nan nan nan nan nan nan nan nan 45 48 49 52 54 53 53 53 52 51 51 49 48 49 48 48 nan 50 46 45 45 45 46 nan nan nan nan nan nan nan
nan nan nan nan nan nan nan nan nan nan nan 50 52 nan nan nan 56 nan 56 56 56 56 57 52 51 53 52 nan 51 52 51 50 47 46 nan nan nan nan nan nan nan nan
Wind_Direction
282 273 269 268 263 265 271 279 282 289 290 284 275 nan nan nan nan nan nan nan nan nan nan nan nan nan nan nan nan nan nan nan nan nan nan nan nan nan nan nan nan nan
282 274 271 266 261 264 270 279 289 292 282 266 265 277 nan nan nan nan nan nan nan nan nan nan nan nan nan nan nan nan nan nan nan nan nan nan nan nan nan nan nan nan
280 276 273 269 265 264 269 281 289 285 271 255 262 nan nan nan nan nan nan nan nan nan nan nan nan nan nan nan nan nan nan nan nan nan nan nan nan nan nan nan nan nan
276 278 277 275 271 268 273 278 279 273 254 250 263 nan nan nan nan nan nan nan nan nan nan nan nan nan nan nan nan nan nan nan nan nan nan nan nan nan nan nan nan nan
277 278 280 278 275 274 273 273 272 257 240 247 261 nan nan nan nan nan nan nan nan nan nan nan nan nan nan nan nan nan nan nan nan nan nan nan nan nan nan nan nan nan
283 283 284 280 276 275 270 266 260 243 240 251 261 nan nan nan nan nan nan nan nan nan nan nan nan nan nan nan nan nan nan nan nan nan nan nan nan nan nan nan nan nan
282 281 284 280 274 268 260 254 244 nan 246 254 nan 265 nan nan nan nan nan nan nan nan nan nan nan nan nan nan nan nan nan nan nan nan nan nan nan nan nan nan nan nan
281 278 279 272 263 256 252 244 241 246 254 nan nan 264 nan nan nan nan nan nan nan nan nan nan nan nan nan nan nan nan nan nan nan nan nan nan nan nan nan nan nan nan
286 278 270 260 254 252 249 247 244 250 259 262 261 258 nan nan nan nan nan nan nan nan nan nan nan nan 275 nan nan nan nan nan nan nan nan nan nan nan nan nan nan nan
290 272 259 250 256 252 250 249 249 256 256 258 256 nan nan 261 265 nan nan nan nan nan nan nan nan 276 277 nan nan nan nan nan nan nan nan nan nan nan nan nan nan nan
287 270 262 259 262 255 252 253 254 254 254 254 253 260 nan 263 nan nan nan nan 267 nan nan nan nan nan nan 281 281 277 281 283 280 nan 281 nan 287 283 nan nan nan nan
287 274 269 265 257 249 245 253 250 245 252 249 254 260 259 260 264 nan nan nan nan nan nan nan nan nan 282 285 286 285 281 284 287 285 285 285 284 283 285 283 285 285
281 269 260 249 245 247 252 237 250 252 252 256 257 261 261 260 261 265 267 nan nan nan nan nan nan 281 278 282 286 288 285 279 280 285 284 282 283 284 283 283 281 280
260 260 268 268 259 255 257 273 272 257 260 259 259 261 266 268 268 271 276 nan nan 286 nan 281 276 272 nan 276 281 281 276 276 279 281 285 287 286 286 286 284 283 279
277 275 270 265 262 259 265 265 267 263 257 248 257 264 254 254 259 267 274 282 278 272 271 265 264 270 nan nan 274 282 282 282 281 278 280 275 272 270 269 273 272 269
270 261 261 263 267 269 270 273 276 273 263 258 251 253 259 261 260 259 258 262 270 268 268 276 282 283 291 nan nan 275 286 293 288 273 268 nan nan nan 288 282 277 282
271 266 262 267 264 265 264 267 271 272 271 267 261 260 261 263 264 264 266 270 269 273 280 283 283 279 nan nan 284 275 275 277 279 284 288 286 286 289 nan 289 283 283
268 269 270 267 270 269 269 271 271 272 273 273 271 268 269 269 270 271 272 273 276 279 283 287 287 286 nan nan 288 281 277 279 280 281 284 285 284 284 284 283 nan 288
255 257 266 269 268 268 266 268 270 274 274 274 274 274 274 274 272 273 274 275 277 280 282 284 284 288 291 nan 288 282 280 282 282 281 279 280 280 283 287 288 287 285
263 264 268 266 264 266 268 268 268 268 269 270 273 273 274 274 275 275 276 278 279 281 283 284 282 287 290 nan 285 283 282 280 280 278 276 276 278 282 285 284 285 285
nan nan nan nan 265 269 269 268 271 273 273 271 274 276 277 277 276 276 277 278 279 282 283 283 280 282 284 285 281 278 277 274 276 277 278 279 283 286 285 nan 290 291
nan nan nan nan nan nan nan nan 270 275 275 276 274 272 272 275 278 277 279 279 279 280 280 280 281 285 287 285 282 277 275 272 275 278 278 281 286 287 nan nan nan 290
nan nan nan nan nan nan nan nan nan 266 269 274 277 281 282 282 282 281 277 275 275 277 278 277 279 283 285 285 282 281 275 275 278 279 280 282 284 287 nan nan nan nan
nan nan nan nan nan nan nan nan nan nan nan 269 273 276 281 284 286 287 289 288 288 286 284 281 280 284 288 283 281 284 281 280 281 280 280 282 282 nan nan nan nan nan
nan nan nan nan nan nan nan nan nan nan nan nan 274 278 281 283 285 284 285 284 284 284 286 285 282 285 289 286 nan 285 282 278 280 279 277 nan nan nan nan nan nan nan
nan nan nan nan nan nan nan nan nan nan nan 275 278 nan nan nan 283 nan 286 285 285 285 285 287 285 284 288 nan 287 287 289 281 278 274 nan nan nan nan nan nan nan nan